Time,TemperatureF,DewpointF,PressureIn,WindDirection,WindDirectionDegrees,WindSpeedMPH,WindSpeedGustMPH,Humidity,HourlyPrecipIn,Conditions,Clouds,dailyrainin,SoftwareType,DateUTC
2013-10-09 00:00:00,47.0,36.2,30.51,SE,142,1.0,2.0,66,0.00,,,0.00,Wunderground v.1.15,2013-10-09 04:00:00,
2013-10-09 00:05:00,47.0,36.2,30.51,SSE,148,1.0,2.0,66,0.00,,,0.00,Wunderground v.1.15,2013-10-09 04:05:00,
2013-10-09 00:10:00,46.9,36.5,30.52,SSE,148,1.0,1.0,67,0.00,,,0.00,Wunderground v.1.15,2013-10-09 04:10:00,
2013-10-09 00:15:00,46.5,36.1,30.52,SSE,148,1.0,1.0,67,0.00,,,0.00,Wunderground v.1.15,2013-10-09 04:15:00,
2013-10-09 00:25:00,46.0,36.0,30.52,SSE,148,1.0,1.0,68,0.00,,,0.00,Wunderground v.1.15,2013-10-09 04:25:00,
2013-10-09 00:30:00,45.7,37.5,30.52,SSE,148,0.0,0.0,73,0.00,,,0.00,Wunderground v.1.15,2013-10-09 04:30:00,
2013-10-09 00:35:00,45.1,37.0,30.52,SSE,148,0.0,0.0,73,0.00,,,0.00,Wunderground v.1.15,2013-10-09 04:35:00,
2013-10-09 00:40:00,44.4,37.0,30.53,SSE,148,1.0,3.0,75,0.00,,,0.00,Wunderground v.1.15,2013-10-09 04:40:00,
2013-10-09 00:45:00,44.0,36.6,30.53,SSE,148,1.0,3.0,75,0.00,,,0.00,Wunderground v.1.15,2013-10-09 04:45:00,
2013-10-09 00:50:00,43.6,36.5,30.53,SSE,148,1.0,1.0,76,0.00,,,0.00,Wunderground v.1.15,2013-10-09 04:50:00,
2013-10-09 00:55:00,43.2,36.8,30.53,SSE,148,0.0,1.0,78,0.00,,,0.00,Wunderground v.1.15,2013-10-09 04:55:00,
2013-10-09 01:00:00,42.9,36.2,30.53,SSE,148,0.0,0.0,77,0.00,,,0.00,Wunderground v.1.15,2013-10-09 05:00:00,
2013-10-09 01:05:00,43.0,35.6,30.53,SSE,148,0.0,0.0,75,0.00,,,0.00,Wunderground v.1.15,2013-10-09 05:05:00,
2013-10-09 01:10:00,43.2,36.5,30.53,SSE,148,0.0,0.0,77,0.00,,,0.00,Wunderground v.1.15,2013-10-09 05:10:00,
2013-10-09 01:15:00,43.1,36.0,30.53,SSE,148,0.0,0.0,76,0.00,,,0.00,Wunderground v.1.15,2013-10-09 05:15:00,
2013-10-09 01:20:00,43.2,35.8,30.53,SSE,148,0.0,0.0,75,0.00,,,0.00,Wunderground v.1.15,2013-10-09 05:20:00,
2013-10-09 01:25:00,43.2,35.8,30.53,SSE,148,0.0,0.0,75,0.00,,,0.00,Wunderground v.1.15,2013-10-09 05:25:00,
2013-10-09 01:30:00,43.0,36.3,30.54,SSE,148,0.0,0.0,77,0.00,,,0.00,Wunderground v.1.15,2013-10-09 05:30:00,
2013-10-09 01:35:00,42.7,36.3,30.54,SSE,148,0.0,0.0,78,0.00,,,0.00,Wunderground v.1.15,2013-10-09 05:35:00,
2013-10-09 01:40:00,42.5,36.4,30.54,West,275,0.0,0.0,79,0.00,,,0.00,Wunderground v.1.15,2013-10-09 05:40:00,
2013-10-09 01:45:00,42.4,36.3,30.54,South,185,0.0,0.0,79,0.00,,,0.00,Wunderground v.1.15,2013-10-09 05:45:00,
2013-10-09 01:50:00,42.1,36.4,30.54,South,185,0.0,0.0,80,0.00,,,0.00,Wunderground v.1.15,2013-10-09 05:50:00,
2013-10-09 02:00:00,41.5,36.4,30.54,South,185,1.0,1.0,82,0.00,,,0.00,Wunderground v.1.15,2013-10-09 06:00:00,
2013-10-09 02:05:00,41.2,36.1,30.54,South,185,1.0,1.0,82,0.00,,,0.00,Wunderground v.1.15,2013-10-09 06:05:00,
2013-10-09 02:10:00,40.9,36.1,30.54,South,184,1.0,1.0,83,0.00,,,0.00,Wunderground v.1.15,2013-10-09 06:10:00,
2013-10-09 02:15:00,40.9,36.1,30.54,South,184,1.0,1.0,83,0.00,,,0.00,Wunderground v.1.15,2013-10-09 06:15:00,
2013-10-09 02:20:00,41.0,35.9,30.54,South,184,0.0,0.0,82,0.00,,,0.00,Wunderground v.1.15,2013-10-09 06:20:00,
2013-10-09 02:25:00,40.9,35.8,30.54,South,184,0.0,0.0,82,0.00,,,0.00,Wunderground v.1.15,2013-10-09 06:25:00,
2013-10-09 02:30:00,40.7,35.9,30.54,South,186,1.0,1.0,83,0.00,,,0.00,Wunderground v.1.15,2013-10-09 06:30:00,
2013-10-09 02:35:00,40.5,36.0,30.54,South,186,1.0,1.0,84,0.00,,,0.00,Wunderground v.1.15,2013-10-09 06:35:00,
2013-10-09 02:40:00,40.3,36.1,30.54,South,186,1.0,1.0,85,0.00,,,0.00,Wunderground v.1.15,2013-10-09 06:40:00,
2013-10-09 02:45:00,40.1,36.0,30.54,South,186,1.0,1.0,85,0.00,,,0.00,Wunderground v.1.15,2013-10-09 06:45:00,
2013-10-09 02:55:00,40.0,35.9,30.54,South,186,0.0,0.0,85,0.00,,,0.00,Wunderground v.1.15,2013-10-09 06:55:00,
2013-10-09 03:00:00,39.8,36.0,30.54,South,186,0.0,1.0,86,0.00,,,0.00,Wunderground v.1.15,2013-10-09 07:00:00,
2013-10-09 03:10:00,40.0,35.9,30.54,South,186,1.0,2.0,85,0.00,,,0.00,Wunderground v.1.15,2013-10-09 07:10:00,
2013-10-09 03:15:00,40.1,35.7,30.54,South,186,1.0,2.0,84,0.00,,,0.00,Wunderground v.1.15,2013-10-09 07:15:00,
2013-10-09 03:20:00,40.2,35.8,30.54,South,186,2.0,2.0,84,0.00,,,0.00,Wunderground v.1.15,2013-10-09 07:20:00,
2013-10-09 03:25:00,40.3,35.8,30.55,South,186,1.0,2.0,84,0.00,,,0.00,Wunderground v.1.15,2013-10-09 07:25:00,
2013-10-09 03:30:00,40.4,35.6,30.55,South,186,1.0,2.0,83,0.00,,,0.00,Wunderground v.1.15,2013-10-09 07:30:00,
2013-10-09 03:35:00,40.5,35.7,30.55,South,186,1.0,2.0,83,0.00,,,0.00,Wunderground v.1.15,2013-10-09 07:35:00,
2013-10-09 03:40:00,40.4,35.9,30.55,South,186,1.0,1.0,84,0.00,,,0.00,Wunderground v.1.15,2013-10-09 07:40:00,
2013-10-09 03:45:00,40.4,36.2,30.55,South,186,0.0,1.0,85,0.00,,,0.00,Wunderground v.1.15,2013-10-09 07:45:00,
2013-10-09 03:50:00,40.2,36.1,30.55,South,186,0.0,1.0,85,0.00,,,0.00,Wunderground v.1.15,2013-10-09 07:50:00,
2013-10-09 03:55:00,40.0,35.9,30.55,South,186,1.0,1.0,85,0.00,,,0.00,Wunderground v.1.15,2013-10-09 07:55:00,
2013-10-09 04:00:00,39.9,36.1,30.56,South,186,0.0,0.0,86,0.00,,,0.00,Wunderground v.1.15,2013-10-09 08:00:00,
2013-10-09 04:05:00,39.7,35.6,30.56,South,186,0.0,0.0,85,0.00,,,0.00,Wunderground v.1.15,2013-10-09 08:05:00,
2013-10-09 04:10:00,39.6,35.5,30.56,South,186,0.0,0.0,85,0.00,,,0.00,Wunderground v.1.15,2013-10-09 08:10:00,
2013-10-09 04:15:00,39.5,35.1,30.56,South,186,0.0,0.0,84,0.00,,,0.00,Wunderground v.1.15,2013-10-09 08:15:00,
2013-10-09 04:20:00,39.4,35.3,30.56,South,186,1.0,2.0,85,0.00,,,0.00,Wunderground v.1.15,2013-10-09 08:20:00,
2013-10-09 04:25:00,39.3,34.9,30.56,South,186,1.0,2.0,84,0.00,,,0.00,Wunderground v.1.15,2013-10-09 08:25:00,
2013-10-09 04:30:00,39.2,35.1,30.57,South,186,1.0,1.0,85,0.00,,,0.00,Wunderground v.1.15,2013-10-09 08:30:00,
2013-10-09 04:35:00,39.1,35.0,30.57,South,186,1.0,1.0,85,0.00,,,0.00,Wunderground v.1.15,2013-10-09 08:35:00,
2013-10-09 04:40:00,39.1,35.0,30.57,South,186,1.0,1.0,85,0.00,,,0.00,Wunderground v.1.15,2013-10-09 08:40:00,
2013-10-09 04:45:00,39.2,35.1,30.57,South,186,1.0,1.0,85,0.00,,,0.00,Wunderground v.1.15,2013-10-09 08:45:00,
2013-10-09 04:50:00,39.4,35.3,30.58,South,186,0.0,0.0,85,0.00,,,0.00,Wunderground v.1.15,2013-10-09 08:50:00,
2013-10-09 04:55:00,39.5,35.4,30.57,South,186,0.0,2.0,85,0.00,,,0.00,Wunderground v.1.15,2013-10-09 08:55:00,
2013-10-09 05:00:00,39.4,35.3,30.57,South,186,1.0,1.0,85,0.00,,,0.00,Wunderground v.1.15,2013-10-09 09:00:00,
2013-10-09 05:05:00,39.2,35.4,30.58,South,186,1.0,1.0,86,0.00,,,0.00,Wunderground v.1.15,2013-10-09 09:05:00,
2013-10-09 05:10:00,39.2,35.4,30.58,South,186,0.0,0.0,86,0.00,,,0.00,Wunderground v.1.15,2013-10-09 09:10:00,
2013-10-09 05:15:00,39.0,35.2,30.58,South,186,0.0,0.0,86,0.00,,,0.00,Wunderground v.1.15,2013-10-09 09:15:00,
2013-10-09 05:25:00,38.7,35.2,30.57,South,186,0.0,1.0,87,0.00,,,0.00,Wunderground v.1.15,2013-10-09 09:25:00,
2013-10-09 05:35:00,38.8,35.3,30.58,South,186,0.0,0.0,87,0.00,,,0.00,Wunderground v.1.15,2013-10-09 09:35:00,
2013-10-09 05:40:00,39.0,35.2,30.58,South,186,0.0,0.0,86,0.00,,,0.00,Wunderground v.1.15,2013-10-09 09:40:00,
2013-10-09 05:50:00,39.4,35.3,30.58,South,186,0.0,0.0,85,0.00,,,0.00,Wunderground v.1.15,2013-10-09 09:50:00,
2013-10-09 05:55:00,39.4,35.3,30.58,South,186,0.0,0.0,85,0.00,,,0.00,Wunderground v.1.15,2013-10-09 09:55:00,
2013-10-09 06:00:00,39.3,35.5,30.58,South,186,1.0,1.0,86,0.00,,,0.00,Wunderground v.1.15,2013-10-09 10:00:00,
2013-10-09 06:05:00,39.2,35.1,30.58,South,186,1.0,2.0,85,0.00,,,0.00,Wunderground v.1.15,2013-10-09 10:05:00,
2013-10-09 06:15:00,39.2,35.1,30.58,South,186,1.0,1.0,85,0.00,,,0.00,Wunderground v.1.15,2013-10-09 10:15:00,
2013-10-09 06:20:00,39.2,35.1,30.59,South,186,1.0,1.0,85,0.00,,,0.00,Wunderground v.1.15,2013-10-09 10:20:00,
2013-10-09 06:30:00,38.8,35.0,30.59,South,186,0.0,0.0,86,0.00,,,0.00,Wunderground v.1.15,2013-10-09 10:30:00,
2013-10-09 06:35:00,38.9,34.8,30.59,South,186,1.0,1.0,85,0.00,,,0.00,Wunderground v.1.15,2013-10-09 10:35:00,
2013-10-09 06:40:00,39.1,34.7,30.59,South,186,1.0,1.0,84,0.00,,,0.00,Wunderground v.1.15,2013-10-09 10:40:00,
2013-10-09 06:45:00,39.3,34.9,30.59,South,186,0.0,1.0,84,0.00,,,0.00,Wunderground v.1.15,2013-10-09 10:45:00,
2013-10-09 06:50:00,39.3,35.2,30.59,South,186,0.0,0.0,85,0.00,,,0.00,Wunderground v.1.15,2013-10-09 10:50:00,
2013-10-09 06:55:00,39.4,35.0,30.59,South,186,0.0,0.0,84,0.00,,,0.00,Wunderground v.1.15,2013-10-09 10:55:00,
2013-10-09 07:00:00,39.3,35.2,30.59,South,186,0.0,0.0,85,0.00,,,0.00,Wunderground v.1.15,2013-10-09 11:00:00,
2013-10-09 07:05:00,39.1,34.7,30.60,South,186,1.0,2.0,84,0.00,,,0.00,Wunderground v.1.15,2013-10-09 11:05:00,
2013-10-09 07:10:00,39.1,34.7,30.60,South,186,1.0,1.0,84,0.00,,,0.00,Wunderground v.1.15,2013-10-09 11:10:00,
2013-10-09 07:15:00,39.1,34.7,30.60,South,186,1.0,1.0,84,0.00,,,0.00,Wunderground v.1.15,2013-10-09 11:15:00,
2013-10-09 07:20:00,39.0,34.6,30.60,South,186,0.0,0.0,84,0.00,,,0.00,Wunderground v.1.15,2013-10-09 11:20:00,
2013-10-09 07:25:00,38.9,34.5,30.60,South,186,0.0,1.0,84,0.00,,,0.00,Wunderground v.1.15,2013-10-09 11:25:00,
2013-10-09 07:35:00,38.9,34.5,30.61,South,186,1.0,2.0,84,0.00,,,0.00,Wunderground v.1.15,2013-10-09 11:35:00,
2013-10-09 07:40:00,39.0,34.6,30.61,South,186,1.0,1.0,84,0.00,,,0.00,Wunderground v.1.15,2013-10-09 11:40:00,
2013-10-09 07:45:00,39.2,34.8,30.61,South,186,0.0,1.0,84,0.00,,,0.00,Wunderground v.1.15,2013-10-09 11:45:00,
2013-10-09 07:50:00,39.3,34.6,30.61,South,186,0.0,0.0,83,0.00,,,0.00,Wunderground v.1.15,2013-10-09 11:50:00,
2013-10-09 07:55:00,39.3,34.6,30.61,South,186,0.0,2.0,83,0.00,,,0.00,Wunderground v.1.15,2013-10-09 11:55:00,
2013-10-09 08:00:00,39.4,35.0,30.61,South,186,1.0,1.0,84,0.00,,,0.00,Wunderground v.1.15,2013-10-09 12:00:00,
2013-10-09 08:05:00,39.7,35.0,30.61,South,186,0.0,1.0,83,0.00,,,0.00,Wunderground v.1.15,2013-10-09 12:05:00,
2013-10-09 08:10:00,40.4,35.6,30.61,South,186,0.0,0.0,83,0.00,,,0.00,Wunderground v.1.15,2013-10-09 12:10:00,
2013-10-09 08:15:00,41.0,35.6,30.61,South,186,0.0,0.0,81,0.00,,,0.00,Wunderground v.1.15,2013-10-09 12:15:00,
2013-10-09 08:20:00,41.6,35.9,30.61,South,186,0.0,0.0,80,0.00,,,0.00,Wunderground v.1.15,2013-10-09 12:20:00,
2013-10-09 08:25:00,42.1,36.1,30.62,South,186,0.0,0.0,79,0.00,,,0.00,Wunderground v.1.15,2013-10-09 12:25:00,
2013-10-09 08:30:00,42.5,36.8,30.61,South,186,0.0,0.0,80,0.00,,,0.00,Wunderground v.1.15,2013-10-09 12:30:00,
2013-10-09 08:35:00,43.0,37.3,30.61,South,186,0.0,0.0,80,0.00,,,0.00,Wunderground v.1.15,2013-10-09 12:35:00,
2013-10-09 08:40:00,43.5,36.8,30.61,South,186,0.0,0.0,77,0.00,,,0.00,Wunderground v.1.15,2013-10-09 12:40:00,
2013-10-09 08:45:00,44.0,37.6,30.62,South,186,0.0,0.0,78,0.00,,,0.00,Wunderground v.1.15,2013-10-09 12:45:00,
2013-10-09 08:50:00,44.4,37.3,30.61,South,186,0.0,0.0,76,0.00,,,0.00,Wunderground v.1.15,2013-10-09 12:50:00,
2013-10-09 08:55:00,45.0,37.6,30.61,South,186,0.0,0.0,75,0.00,,,0.00,Wunderground v.1.15,2013-10-09 12:55:00,
2013-10-09 09:00:00,45.6,39.1,30.61,South,186,0.0,0.0,78,0.00,,,0.00,Wunderground v.1.15,2013-10-09 13:00:00,
2013-10-09 09:05:00,46.2,39.7,30.62,South,186,0.0,0.0,78,0.00,,,0.00,Wunderground v.1.15,2013-10-09 13:05:00,
2013-10-09 09:10:00,46.9,39.4,30.62,South,186,0.0,0.0,75,0.00,,,0.00,Wunderground v.1.15,2013-10-09 13:10:00,
2013-10-09 09:15:00,47.4,38.8,30.62,South,186,0.0,0.0,72,0.00,,,0.00,Wunderground v.1.15,2013-10-09 13:15:00,
2013-10-09 09:20:00,47.6,39.4,30.62,South,186,0.0,0.0,73,0.00,,,0.00,Wunderground v.1.15,2013-10-09 13:20:00,
2013-10-09 09:25:00,47.6,38.3,30.62,South,186,0.0,0.0,70,0.00,,,0.00,Wunderground v.1.15,2013-10-09 13:25:00,
2013-10-09 09:30:00,47.9,38.9,30.62,South,186,0.0,0.0,71,0.00,,,0.00,Wunderground v.1.15,2013-10-09 13:30:00,
2013-10-09 09:35:00,48.3,39.3,30.62,South,186,0.0,0.0,71,0.00,,,0.00,Wunderground v.1.15,2013-10-09 13:35:00,
2013-10-09 09:45:00,49.4,38.9,30.62,South,186,0.0,0.0,67,0.00,,,0.00,Wunderground v.1.15,2013-10-09 13:45:00,
2013-10-09 09:50:00,49.7,38.4,30.63,WNW,298,0.0,0.0,65,0.00,,,0.00,Wunderground v.1.15,2013-10-09 13:50:00,
2013-10-09 09:55:00,50.2,39.3,30.62,WNW,298,0.0,0.0,66,0.00,,,0.00,Wunderground v.1.15,2013-10-09 13:55:00,
2013-10-09 10:00:00,50.6,39.7,30.62,WNW,298,0.0,0.0,66,0.00,,,0.00,Wunderground v.1.15,2013-10-09 14:00:00,
2013-10-09 10:05:00,50.7,39.0,30.62,WNW,298,0.0,0.0,64,0.00,,,0.00,Wunderground v.1.15,2013-10-09 14:05:00,
2013-10-09 10:10:00,50.7,39.0,30.62,WNW,298,1.0,1.0,64,0.00,,,0.00,Wunderground v.1.15,2013-10-09 14:10:00,
2013-10-09 10:15:00,50.9,38.3,30.62,WNW,298,1.0,1.0,62,0.00,,,0.00,Wunderground v.1.15,2013-10-09 14:15:00,
2013-10-09 10:20:00,51.2,39.0,30.62,WNW,298,0.0,0.0,63,0.00,,,0.00,Wunderground v.1.15,2013-10-09 14:20:00,
2013-10-09 10:25:00,51.5,38.9,30.62,NNW,330,1.0,1.0,62,0.00,,,0.00,Wunderground v.1.15,2013-10-09 14:25:00,
2013-10-09 10:35:00,51.8,39.2,30.62,NNW,334,1.0,4.0,62,0.00,,,0.00,Wunderground v.1.15,2013-10-09 14:35:00,
2013-10-09 10:45:00,52.8,40.5,30.62,NE,42,1.0,4.0,63,0.00,,,0.00,Wunderground v.1.15,2013-10-09 14:45:00,
2013-10-09 10:50:00,53.2,40.5,30.62,WNW,295,1.0,1.0,62,0.00,,,0.00,Wunderground v.1.15,2013-10-09 14:50:00,
2013-10-09 10:55:00,53.6,40.5,30.62,North,5,1.0,4.0,61,0.00,,,0.00,Wunderground v.1.15,2013-10-09 14:55:00,
2013-10-09 11:00:00,54.1,39.6,30.62,ESE,113,2.0,2.0,58,0.00,,,0.00,Wunderground v.1.15,2013-10-09 15:00:00,
2013-10-09 11:10:00,54.6,39.7,30.62,ESE,107,2.0,2.0,57,0.00,,,0.00,Wunderground v.1.15,2013-10-09 15:10:00,
2013-10-09 11:15:00,54.8,39.8,30.62,ESE,120,1.0,3.0,57,0.00,,,0.00,Wunderground v.1.15,2013-10-09 15:15:00,
2013-10-09 11:20:00,54.9,39.9,30.61,East,101,2.0,4.0,57,0.00,,,0.00,Wunderground v.1.15,2013-10-09 15:20:00,
2013-10-09 11:25:00,55.0,40.0,30.61,East,83,2.0,4.0,57,0.00,,,0.00,Wunderground v.1.15,2013-10-09 15:25:00,
2013-10-09 11:30:00,55.1,39.2,30.61,East,90,2.0,2.0,55,0.00,,,0.00,Wunderground v.1.15,2013-10-09 15:30:00,
2013-10-09 11:35:00,55.0,40.0,30.61,NE,47,3.0,6.0,57,0.00,,,0.00,Wunderground v.1.15,2013-10-09 15:35:00,
2013-10-09 11:40:00,55.0,40.5,30.61,East,84,2.0,2.0,58,0.00,,,0.00,Wunderground v.1.15,2013-10-09 15:40:00,
2013-10-09 11:45:00,55.3,39.9,30.61,North,10,1.0,4.0,56,0.00,,,0.00,Wunderground v.1.15,2013-10-09 15:45:00,
2013-10-09 11:55:00,55.2,40.2,30.61,North,9,3.0,7.0,57,0.00,,,0.00,Wunderground v.1.15,2013-10-09 15:55:00,
2013-10-09 12:00:00,55.5,40.5,30.61,NE,43,2.0,2.0,57,0.00,,,0.00,Wunderground v.1.15,2013-10-09 16:00:00,
2013-10-09 12:05:00,55.9,40.4,30.61,East,84,2.0,2.0,56,0.00,,,0.00,Wunderground v.1.15,2013-10-09 16:05:00,
2013-10-09 12:10:00,55.9,40.0,30.61,East,88,2.0,2.0,55,0.00,,,0.00,Wunderground v.1.15,2013-10-09 16:10:00,
2013-10-09 12:15:00,56.1,40.1,30.61,NE,40,2.0,3.0,55,0.00,,,0.00,Wunderground v.1.15,2013-10-09 16:15:00,
2013-10-09 12:20:00,56.4,40.9,30.60,NE,36,2.0,2.0,56,0.00,,,0.00,Wunderground v.1.15,2013-10-09 16:20:00,
2013-10-09 12:25:00,56.5,40.5,30.60,NE,41,2.0,2.0,55,0.00,,,0.00,Wunderground v.1.15,2013-10-09 16:25:00,
2013-10-09 12:35:00,57.4,42.3,30.60,SW,216,0.0,1.0,57,0.00,,,0.00,Wunderground v.1.15,2013-10-09 16:35:00,
2013-10-09 12:45:00,57.8,42.7,30.60,South,179,1.0,2.0,57,0.00,,,0.00,Wunderground v.1.15,2013-10-09 16:45:00,
2013-10-09 12:50:00,57.9,41.8,30.59,ENE,60,1.0,1.0,55,0.00,,,0.00,Wunderground v.1.15,2013-10-09 16:50:00,
2013-10-09 12:55:00,57.6,42.5,30.58,NW,323,1.0,1.0,57,0.00,,,0.00,Wunderground v.1.15,2013-10-09 16:55:00,
2013-10-09 13:00:00,57.5,42.4,30.58,West,266,1.0,2.0,57,0.00,,,0.00,Wunderground v.1.15,2013-10-09 17:00:00,
2013-10-09 13:10:00,57.8,42.2,30.58,West,278,1.0,1.0,56,0.00,,,0.00,Wunderground v.1.15,2013-10-09 17:10:00,
2013-10-09 13:15:00,57.9,42.8,30.58,SSW,210,1.0,1.0,57,0.00,,,0.00,Wunderground v.1.15,2013-10-09 17:15:00,
2013-10-09 13:20:00,58.1,41.5,30.58,SSW,213,1.0,1.0,54,0.00,,,0.00,Wunderground v.1.15,2013-10-09 17:20:00,
2013-10-09 13:25:00,58.1,42.0,30.58,ENE,71,1.0,3.0,55,0.00,,,0.00,Wunderground v.1.15,2013-10-09 17:25:00,
2013-10-09 13:30:00,58.0,41.9,30.57,ESE,112,1.0,1.0,55,0.00,,,0.00,Wunderground v.1.15,2013-10-09 17:30:00,
2013-10-09 13:35:00,58.1,41.5,30.57,SW,219,1.0,1.0,54,0.00,,,0.00,Wunderground v.1.15,2013-10-09 17:35:00,
2013-10-09 13:40:00,58.4,42.8,30.57,South,181,1.0,1.0,56,0.00,,,0.00,Wunderground v.1.15,2013-10-09 17:40:00,
2013-10-09 13:45:00,58.7,43.0,30.57,SW,233,1.0,1.0,56,0.00,,,0.00,Wunderground v.1.15,2013-10-09 17:45:00,
2013-10-09 13:50:00,59.1,43.4,30.57,NW,313,1.0,3.0,56,0.00,,,0.00,Wunderground v.1.15,2013-10-09 17:50:00,
2013-10-09 13:55:00,58.8,43.1,30.56,North,360,2.0,3.0,56,0.00,,,0.00,Wunderground v.1.15,2013-10-09 17:55:00,
2013-10-09 14:00:00,59.0,41.9,30.56,WNW,302,1.0,1.0,53,0.00,,,0.00,Wunderground v.1.15,2013-10-09 18:00:00,
2013-10-09 14:05:00,59.3,41.7,30.56,NNW,329,1.0,1.0,52,0.00,,,0.00,Wunderground v.1.15,2013-10-09 18:05:00,
2013-10-09 14:10:00,59.2,42.1,30.56,NNW,331,1.0,1.0,53,0.00,,,0.00,Wunderground v.1.15,2013-10-09 18:10:00,
2013-10-09 14:15:00,59.3,42.6,30.56,West,262,1.0,1.0,54,0.00,,,0.00,Wunderground v.1.15,2013-10-09 18:15:00,
2013-10-09 14:20:00,59.4,42.3,30.55,ENE,74,1.0,1.0,53,0.00,,,0.00,Wunderground v.1.15,2013-10-09 18:20:00,
2013-10-09 14:25:00,59.4,42.3,30.55,ENE,58,1.0,1.0,53,0.00,,,0.00,Wunderground v.1.15,2013-10-09 18:25:00,
2013-10-09 14:30:00,59.6,42.4,30.55,ESE,113,1.0,1.0,53,0.00,,,0.00,Wunderground v.1.15,2013-10-09 18:30:00,
2013-10-09 14:35:00,59.9,43.7,30.55,ENE,74,0.0,2.0,55,0.00,,,0.00,Wunderground v.1.15,2013-10-09 18:35:00,
2013-10-09 14:40:00,59.7,42.5,30.55,North,351,2.0,5.0,53,0.00,,,0.00,Wunderground v.1.15,2013-10-09 18:40:00,
2013-10-09 14:50:00,59.5,42.3,30.55,ENE,64,2.0,2.0,53,0.00,,,0.00,Wunderground v.1.15,2013-10-09 18:50:00,
2013-10-09 14:55:00,59.5,43.3,30.55,ENE,76,2.0,2.0,55,0.00,,,0.00,Wunderground v.1.15,2013-10-09 18:55:00,
2013-10-09 15:00:00,59.3,42.6,30.55,NE,45,2.0,2.0,54,0.00,,,0.00,Wunderground v.1.15,2013-10-09 19:00:00,
2013-10-09 15:05:00,59.4,42.3,30.54,North,355,3.0,5.0,53,0.00,,,0.00,Wunderground v.1.15,2013-10-09 19:05:00,
2013-10-09 15:10:00,59.4,42.3,30.54,North,360,3.0,3.0,53,0.00,,,0.00,Wunderground v.1.15,2013-10-09 19:10:00,
2013-10-09 15:15:00,59.6,44.3,30.54,North,355,3.0,3.0,57,0.00,,,0.00,Wunderground v.1.15,2013-10-09 19:15:00,
2013-10-09 15:20:00,59.9,42.7,30.54,NW,315,2.0,2.0,53,0.00,,,0.00,Wunderground v.1.15,2013-10-09 19:20:00,
2013-10-09 15:25:00,60.1,42.4,30.54,NNE,14,1.0,2.0,52,0.00,,,0.00,Wunderground v.1.15,2013-10-09 19:25:00,
2013-10-09 15:30:00,60.3,42.1,30.54,SE,134,1.0,1.0,51,0.00,,,0.00,Wunderground v.1.15,2013-10-09 19:30:00,
2013-10-09 15:35:00,60.6,42.4,30.54,SW,225,1.0,1.0,51,0.00,,,0.00,Wunderground v.1.15,2013-10-09 19:35:00,
2013-10-09 15:45:00,61.2,42.9,30.53,SW,229,1.0,1.0,51,0.00,,,0.00,Wunderground v.1.15,2013-10-09 19:45:00,
2013-10-09 15:55:00,61.9,43.6,30.53,South,186,0.0,3.0,51,0.00,,,0.00,Wunderground v.1.15,2013-10-09 19:55:00,
2013-10-09 16:00:00,61.7,41.8,30.53,SSE,164,1.0,2.0,48,0.00,,,0.00,Wunderground v.1.15,2013-10-09 20:00:00,
2013-10-09 16:05:00,61.6,41.7,30.53,SSW,213,1.0,2.0,48,0.00,,,0.00,Wunderground v.1.15,2013-10-09 20:05:00,
2013-10-09 16:10:00,61.6,42.2,30.53,SSW,213,0.0,1.0,49,0.00,,,0.00,Wunderground v.1.15,2013-10-09 20:10:00,
2013-10-09 16:15:00,61.6,42.2,30.53,WSW,244,1.0,1.0,49,0.00,,,0.00,Wunderground v.1.15,2013-10-09 20:15:00,
2013-10-09 16:25:00,61.7,42.3,30.53,SW,236,0.0,0.0,49,0.00,,,0.00,Wunderground v.1.15,2013-10-09 20:25:00,
2013-10-09 16:35:00,61.6,42.8,30.53,SW,223,0.0,0.0,50,0.00,,,0.00,Wunderground v.1.15,2013-10-09 20:35:00,
2013-10-09 16:40:00,61.6,42.8,30.53,SW,223,0.0,0.0,50,0.00,,,0.00,Wunderground v.1.15,2013-10-09 20:40:00,
2013-10-09 16:45:00,61.3,43.5,30.53,WSW,248,0.0,0.0,52,0.00,,,0.00,Wunderground v.1.15,2013-10-09 20:45:00,
2013-10-09 16:50:00,61.2,42.9,30.53,SW,236,0.0,0.0,51,0.00,,,0.00,Wunderground v.1.15,2013-10-09 20:50:00,
2013-10-09 16:55:00,61.0,42.7,30.52,South,174,0.0,0.0,51,0.00,,,0.00,Wunderground v.1.15,2013-10-09 20:55:00,
2013-10-09 17:00:00,60.7,41.4,30.53,South,174,0.0,0.0,49,0.00,,,0.00,Wunderground v.1.15,2013-10-09 21:00:00,
2013-10-09 17:05:00,60.3,41.6,30.53,SSW,211,0.0,0.0,50,0.00,,,0.00,Wunderground v.1.15,2013-10-09 21:05:00,
2013-10-09 17:10:00,59.7,41.5,30.53,SW,219,0.0,1.0,51,0.00,,,0.00,Wunderground v.1.15,2013-10-09 21:10:00,
2013-10-09 17:15:00,59.1,42.5,30.52,SW,219,0.0,1.0,54,0.00,,,0.00,Wunderground v.1.15,2013-10-09 21:15:00,
2013-10-09 17:20:00,58.5,41.9,30.53,SW,219,0.0,0.0,54,0.00,,,0.00,Wunderground v.1.15,2013-10-09 21:20:00,
2013-10-09 17:25:00,58.1,44.3,30.53,SW,219,0.0,0.0,60,0.00,,,0.00,Wunderground v.1.15,2013-10-09 21:25:00,
2013-10-09 17:35:00,57.1,42.9,30.52,SW,219,0.0,0.0,59,0.00,,,0.00,Wunderground v.1.15,2013-10-09 21:35:00,
2013-10-09 17:45:00,55.9,43.1,30.52,SW,219,0.0,1.0,62,0.00,,,0.00,Wunderground v.1.15,2013-10-09 21:45:00,
2013-10-09 17:55:00,54.8,42.9,30.52,SSW,192,1.0,1.0,64,0.00,,,0.00,Wunderground v.1.15,2013-10-09 21:55:00,
2013-10-09 18:00:00,54.2,42.7,30.52,South,169,0.0,0.0,65,0.00,,,0.00,Wunderground v.1.15,2013-10-09 22:00:00,
2013-10-09 18:05:00,53.6,42.5,30.52,South,169,0.0,1.0,66,0.00,,,0.00,Wunderground v.1.15,2013-10-09 22:05:00,
2013-10-09 18:10:00,53.0,42.7,30.52,South,169,0.0,1.0,68,0.00,,,0.00,Wunderground v.1.15,2013-10-09 22:10:00,
2013-10-09 18:15:00,52.4,42.9,30.52,South,169,0.0,1.0,70,0.00,,,0.00,Wunderground v.1.15,2013-10-09 22:15:00,
2013-10-09 18:25:00,51.7,43.0,30.51,South,169,0.0,1.0,72,0.00,,,0.00,Wunderground v.1.15,2013-10-09 22:25:00,
2013-10-09 18:30:00,51.5,43.1,30.51,South,169,0.0,0.0,73,0.00,,,0.00,Wunderground v.1.15,2013-10-09 22:30:00,
2013-10-09 18:40:00,51.1,42.7,30.51,SE,131,0.0,0.0,73,0.00,,,0.00,Wunderground v.1.15,2013-10-09 22:40:00,
2013-10-09 18:45:00,51.0,43.0,30.51,SE,133,0.0,0.0,74,0.00,,,0.00,Wunderground v.1.15,2013-10-09 22:45:00,
2013-10-09 18:50:00,50.9,42.6,30.52,SE,133,0.0,0.0,73,0.00,,,0.00,Wunderground v.1.15,2013-10-09 22:50:00,
2013-10-09 18:55:00,50.8,42.5,30.52,SE,133,0.0,0.0,73,0.00,,,0.00,Wunderground v.1.15,2013-10-09 22:55:00,
2013-10-09 19:00:00,50.7,42.4,30.52,SE,136,0.0,0.0,73,0.00,,,0.00,Wunderground v.1.15,2013-10-09 23:00:00,
2013-10-09 19:05:00,50.6,42.3,30.52,SE,136,0.0,0.0,73,0.00,,,0.00,Wunderground v.1.15,2013-10-09 23:05:00,
2013-10-09 19:10:00,50.6,42.3,30.51,SE,136,0.0,0.0,73,0.00,,,0.00,Wunderground v.1.15,2013-10-09 23:10:00,
2013-10-09 19:15:00,50.5,42.5,30.52,SE,136,0.0,0.0,74,0.00,,,0.00,Wunderground v.1.15,2013-10-09 23:15:00,
2013-10-09 19:20:00,50.3,42.3,30.51,SE,136,0.0,0.0,74,0.00,,,0.00,Wunderground v.1.15,2013-10-09 23:20:00,
2013-10-09 19:30:00,50.0,42.0,30.51,SE,136,0.0,0.0,74,0.00,,,0.00,Wunderground v.1.15,2013-10-09 23:30:00,
2013-10-09 19:35:00,50.0,42.0,30.51,SE,136,0.0,0.0,74,0.00,,,0.00,Wunderground v.1.15,2013-10-09 23:35:00,
2013-10-09 19:40:00,50.0,42.0,30.51,SE,136,0.0,0.0,74,0.00,,,0.00,Wunderground v.1.15,2013-10-09 23:40:00,
2013-10-09 19:45:00,49.8,42.2,30.51,SE,136,0.0,0.0,75,0.00,,,0.00,Wunderground v.1.15,2013-10-09 23:45:00,
2013-10-09 19:50:00,49.6,42.0,30.52,SE,136,0.0,0.0,75,0.00,,,0.00,Wunderground v.1.15,2013-10-09 23:50:00,
2013-10-09 19:55:00,49.4,41.5,30.51,SE,136,0.0,0.0,74,0.00,,,0.00,Wunderground v.1.15,2013-10-09 23:55:00,
2013-10-09 20:00:00,49.4,41.8,30.51,SSE,151,0.0,2.0,75,0.00,,,0.00,Wunderground v.1.15,2013-10-10 00:00:00,
2013-10-09 20:05:00,49.4,41.5,30.51,SSE,151,0.0,2.0,74,0.00,,,0.00,Wunderground v.1.15,2013-10-10 00:05:00,
2013-10-09 20:10:00,49.5,40.8,30.52,SSE,151,0.0,1.0,72,0.00,,,0.00,Wunderground v.1.15,2013-10-10 00:10:00,
2013-10-09 20:20:00,49.4,41.5,30.52,SSE,151,0.0,1.0,74,0.00,,,0.00,Wunderground v.1.15,2013-10-10 00:20:00,
2013-10-09 20:25:00,49.2,41.6,30.52,SSE,151,0.0,1.0,75,0.00,,,0.00,Wunderground v.1.15,2013-10-10 00:25:00,
2013-10-09 20:30:00,48.8,41.6,30.51,SSE,157,0.0,0.0,76,0.00,,,0.00,Wunderground v.1.15,2013-10-10 00:30:00,
2013-10-09 20:40:00,48.3,41.4,30.51,SSE,157,0.0,0.0,77,0.00,,,0.00,Wunderground v.1.15,2013-10-10 00:40:00,
2013-10-09 20:45:00,48.1,41.9,30.51,SSE,157,0.0,0.0,79,0.00,,,0.00,Wunderground v.1.15,2013-10-10 00:45:00,
2013-10-09 20:50:00,47.8,41.9,30.51,SSE,157,1.0,1.0,80,0.00,,,0.00,Wunderground v.1.15,2013-10-10 00:50:00,
2013-10-09 20:55:00,47.6,42.1,30.51,SSE,157,1.0,1.0,81,0.00,,,0.00,Wunderground v.1.15,2013-10-10 00:55:00,
2013-10-09 21:00:00,47.6,42.1,30.51,SSE,157,1.0,2.0,81,0.00,,,0.00,Wunderground v.1.15,2013-10-10 01:00:00,
2013-10-09 21:05:00,47.8,42.3,30.51,SSE,157,1.0,2.0,81,0.00,,,0.00,Wunderground v.1.15,2013-10-10 01:05:00,
2013-10-09 21:10:00,47.9,42.3,30.51,SSE,157,1.0,1.0,81,0.00,,,0.00,Wunderground v.1.15,2013-10-10 01:10:00,
2013-10-09 21:15:00,48.1,42.5,30.51,SSE,157,0.0,1.0,81,0.00,,,0.00,Wunderground v.1.15,2013-10-10 01:15:00,
2013-10-09 21:20:00,48.1,42.5,30.51,SSE,157,0.0,0.0,81,0.00,,,0.00,Wunderground v.1.15,2013-10-10 01:20:00,
2013-10-09 21:25:00,48.0,42.4,30.51,SSE,157,0.0,0.0,81,0.00,,,0.00,Wunderground v.1.15,2013-10-10 01:25:00,
2013-10-09 21:30:00,47.7,42.2,30.51,SSE,157,0.0,0.0,81,0.00,,,0.00,Wunderground v.1.15,2013-10-10 01:30:00,
2013-10-09 21:35:00,47.3,41.8,30.51,SSE,157,0.0,0.0,81,0.00,,,0.00,Wunderground v.1.15,2013-10-10 01:35:00,
2013-10-09 21:40:00,47.0,42.1,30.51,SSE,157,0.0,0.0,83,0.00,,,0.00,Wunderground v.1.15,2013-10-10 01:40:00,
2013-10-09 21:45:00,46.8,41.9,30.51,SSE,157,0.0,0.0,83,0.00,,,0.00,Wunderground v.1.15,2013-10-10 01:45:00,
2013-10-09 21:50:00,46.6,41.7,30.51,SSE,157,0.0,0.0,83,0.00,,,0.00,Wunderground v.1.15,2013-10-10 01:50:00,
2013-10-09 21:55:00,46.4,41.8,30.51,SSE,157,0.0,0.0,84,0.00,,,0.00,Wunderground v.1.15,2013-10-10 01:55:00,
2013-10-09 22:00:00,46.3,41.7,30.51,SSE,157,0.0,0.0,84,0.00,,,0.00,Wunderground v.1.15,2013-10-10 02:00:00,
2013-10-09 22:05:00,46.3,41.7,30.51,SSE,157,0.0,0.0,84,0.00,,,0.00,Wunderground v.1.15,2013-10-10 02:05:00,
2013-10-09 22:10:00,46.2,41.6,30.51,SSE,157,0.0,0.0,84,0.00,,,0.00,Wunderground v.1.15,2013-10-10 02:10:00,
2013-10-09 22:15:00,46.2,41.9,30.51,SSE,157,0.0,1.0,85,0.00,,,0.00,Wunderground v.1.15,2013-10-10 02:15:00,
2013-10-09 22:20:00,46.2,41.9,30.50,SSE,157,0.0,2.0,85,0.00,,,0.00,Wunderground v.1.15,2013-10-10 02:20:00,
2013-10-09 22:25:00,46.1,41.8,30.50,SSE,157,1.0,2.0,85,0.00,,,0.00,Wunderground v.1.15,2013-10-10 02:25:00,
2013-10-09 22:30:00,46.1,41.8,30.51,SSE,157,0.0,0.0,85,0.00,,,0.00,Wunderground v.1.15,2013-10-10 02:30:00,
2013-10-09 22:35:00,46.0,41.7,30.50,SSE,157,0.0,0.0,85,0.00,,,0.00,Wunderground v.1.15,2013-10-10 02:35:00,
2013-10-09 22:40:00,46.0,41.7,30.50,SSE,157,0.0,0.0,85,0.00,,,0.00,Wunderground v.1.15,2013-10-10 02:40:00,
2013-10-09 22:45:00,46.1,41.8,30.50,SSE,157,0.0,0.0,85,0.00,,,0.00,Wunderground v.1.15,2013-10-10 02:45:00,
2013-10-09 22:50:00,46.2,41.9,30.50,SSE,157,0.0,0.0,85,0.00,,,0.00,Wunderground v.1.15,2013-10-10 02:50:00,
2013-10-09 22:55:00,46.3,42.0,30.50,SSE,157,0.0,0.0,85,0.00,,,0.00,Wunderground v.1.15,2013-10-10 02:55:00,
2013-10-09 23:00:00,46.3,41.7,30.50,SSE,157,0.0,0.0,84,0.00,,,0.00,Wunderground v.1.15,2013-10-10 03:00:00,
2013-10-09 23:05:00,46.0,41.4,30.51,SSE,157,1.0,1.0,84,0.00,,,0.00,Wunderground v.1.15,2013-10-10 03:05:00,
2013-10-09 23:10:00,45.9,41.6,30.50,SSE,157,0.0,0.0,85,0.00,,,0.00,Wunderground v.1.15,2013-10-10 03:10:00,
2013-10-09 23:15:00,45.8,41.5,30.50,SSE,157,0.0,0.0,85,0.00,,,0.00,Wunderground v.1.15,2013-10-10 03:15:00,
2013-10-09 23:20:00,45.7,41.4,30.50,SSE,157,0.0,0.0,85,0.00,,,0.00,Wunderground v.1.15,2013-10-10 03:20:00,
2013-10-09 23:25:00,45.6,41.7,30.50,SSE,157,0.0,0.0,86,0.00,,,0.00,Wunderground v.1.15,2013-10-10 03:25:00,
2013-10-09 23:30:00,45.4,41.5,30.49,SSE,157,0.0,0.0,86,0.00,,,0.00,Wunderground v.1.15,2013-10-10 03:30:00,
2013-10-09 23:35:00,45.1,41.5,30.49,SSE,157,0.0,0.0,87,0.00,,,0.00,Wunderground v.1.15,2013-10-10 03:35:00,
2013-10-09 23:45:00,44.7,41.1,30.49,SSE,157,0.0,0.0,87,0.00,,,0.00,Wunderground v.1.15,2013-10-10 03:45:00,
2013-10-09 23:50:00,44.5,41.2,30.49,SSE,157,0.0,0.0,88,0.00,,,0.00,Wunderground v.1.15,2013-10-10 03:50:00,
2013-10-09 23:55:00,44.3,41.0,30.49,SSE,157,0.0,1.0,88,0.00,,,0.00,Wunderground v.1.15,2013-10-10 03:55:00,